CYKL

Schefferville Airport

ICAO Code CYKL
IATA Code YKL
Name Schefferville Airport
Location Schefferville, Quebec, CA
Elevation 1709 Feet / 520.9 Meters
Latitude 54.80527778
Longitude -66.80527778
METAR CYKL 270322Z AUTO 33010KT 9SM CLR M17/M18 A2960 RMK SLP079
Extra information Display Charts
Runway Length Width Surface Elevation
17 5002 ft 150 ft ASP 1688 ft
35 5002 ft 150 ft ASP 1698 ft